TimeMDT,TemperatureF,Dew PointF,Humidity,Sea Level PressureIn,VisibilityMPH,Wind Direction,Wind SpeedMPH,Gust SpeedMPH,PrecipitationIn,Events,Conditions,WindDirDegrees,DateUTC
12:52 AM,53.1,25.0,34,29.78,10.0,South,11.5,-,N/A,,Overcast,190,2013-10-30 06:52:00
1:52 AM,54.0,25.0,33,29.78,10.0,South,12.7,-,N/A,,Mostly Cloudy,190,2013-10-30 07:52:00
2:52 AM,52.0,27.0,38,29.80,10.0,Calm,Calm,-,N/A,,Mostly Cloudy,0,2013-10-30 08:52:00
3:52 AM,52.0,34.0,50,29.81,10.0,NNW,9.2,-,N/A,,Mostly Cloudy,340,2013-10-30 09:52:00
4:52 AM,51.1,34.0,52,29.81,10.0,North,9.2,-,N/A,,Mostly Cloudy,350,2013-10-30 10:52:00
5:52 AM,50.0,34.0,54,29.85,10.0,Calm,Calm,-,N/A,,Mostly Cloudy,0,2013-10-30 11:52:00
6:52 AM,48.0,35.1,61,29.87,10.0,WNW,3.5,-,N/A,,Mostly Cloudy,290,2013-10-30 12:52:00
7:52 AM,46.0,34.0,63,29.89,10.0,West,3.5,-,N/A,,Scattered Clouds,270,2013-10-30 13:52:00
8:52 AM,46.9,34.0,61,29.91,10.0,South,4.6,-,N/A,,Scattered Clouds,170,2013-10-30 14:52:00
9:52 AM,48.0,34.0,58,29.92,10.0,SE,3.5,-,N/A,,Mostly Cloudy,140,2013-10-30 15:52:00
10:52 AM,52.0,33.1,49,29.90,10.0,Calm,Calm,-,N/A,,Mostly Cloudy,0,2013-10-30 16:52:00
11:52 AM,54.0,32.0,43,29.86,10.0,Variable,4.6,-,N/A,,Scattered Clouds,0,2013-10-30 17:52:00
12:52 PM,57.0,30.9,37,29.81,10.0,SSW,9.2,-,N/A,,Scattered Clouds,200,2013-10-30 18:52:00
1:52 PM,55.9,32.0,40,29.76,10.0,South,8.1,25.3,0.00,,Scattered Clouds,180,2013-10-30 19:52:00
2:52 PM,59.0,30.9,35,29.72,10.0,West,12.7,-,0.00,,Mostly Cloudy,270,2013-10-30 20:52:00
3:37 PM,59.0,30.2,34,29.85,10.0,SSW,15.0,24.2,N/A,,Mostly Cloudy,210,2013-10-30 21:37:00
3:52 PM,59.0,30.0,33,29.70,10.0,SSW,16.1,24.2,N/A,,Mostly Cloudy,200,2013-10-30 21:52:00
4:52 PM,59.0,26.1,28,29.71,10.0,West,24.2,28.8,N/A,,Mostly Cloudy,260,2013-10-30 22:52:00
5:14 PM,55.4,33.8,44,29.87,10.0,NNW,11.5,20.7,N/A,,Mostly Cloudy,340,2013-10-30 23:14:00
5:52 PM,53.1,30.0,41,29.80,10.0,West,21.9,34.5,N/A,,Mostly Cloudy,270,2013-10-30 23:52:00
6:00 PM,51.8,28.4,41,29.92,10.0,West,23.0,38.0,N/A,,Mostly Cloudy,280,2013-10-31 00:00:00
6:52 PM,48.9,25.0,39,29.86,10.0,West,26.5,38.0,N/A,,Mostly Cloudy,270,2013-10-31 00:52:00
7:52 PM,46.9,25.0,42,29.90,10.0,West,19.6,28.8,N/A,,Scattered Clouds,270,2013-10-31 01:52:00
8:52 PM,45.0,26.1,48,29.91,10.0,West,13.8,-,N/A,,Scattered Clouds,270,2013-10-31 02:52:00
9:52 PM,44.1,26.1,49,29.94,10.0,WNW,6.9,-,N/A,,Scattered Clouds,300,2013-10-31 03:52:00
10:52 PM,43.0,28.9,58,29.94,10.0,North,6.9,-,N/A,,Scattered Clouds,10,2013-10-31 04:52:00
11:52 PM,42.1,28.9,60,29.94,10.0,ENE,5.8,-,N/A,,Scattered Clouds,60,2013-10-31 05:52:00